SCP
-0 -0 0 0 0 0 0 0 0 0 0 0 0 0 0 0 0 0 0 0 0 -0 -0 -0 -0 -1 -0 -0 -0 -0 -0 -0 -0 -0 -0 -0 0 0 0 0 0 0 0 0 0 0 0 0 0
-0 -0 0 0 0 0 0 0 0 0 0 0 0 0 0 0 0 0 0 0 0 -0 -0 -0 -0 -0 -0 -0 -0 -0 -0 -0 -0 0 0 0 0 0 0 0 0 0 0 0 0 0 0 0 0
-0 -0 0 -0 0 -0 0 0 0 0 0 0 0 0 0 0 0 0 0 0 0 0 -0 -0 -0 -0 -0 -0 -0 -0 -0 -0 -0 -0 -0 -0 0 0 0 0 0 0 0 0 0 0 0 0 0
0 0 0 -0 0 -0 0 0 0 0 0 0 0 0 0 0 0 0 0 0 0 -0 -0 -0 -0 -0 -0 -0 -0 -0 -0 -0 -0 -0 -0 -0 -0 0 0 0 0 0 0 0 0 0 0 0 0
0 -0 0 0 0 0 0 0 0 0 0 0 0 0 0 0 0 0 0 0 0 0 0 -0 -0 -0 -0 -0 -0 0 0 0 0 -0 -0 0 0 0 0 0 0 0 0 0 0 0 0 0 0
-0 0 0 0 0 0 0 0 0 0 0 0 0 0 0 0 0 0 0 0 0 0 0 0 -0 -0 -0 -0 0 0 0 0 0 0 0 0 0 0 0 0 0 0 0 0 0 0 0 0 0
0 0 0 0 0 0 0 0 0 0 0 0 0 0 0 0 0 0 0 0 0 0 0 0 0 0 0 -0 0 0 0 0 0 0 0 0 0 0 0 0 0 0 0 0 0 0 0 0 0
0 0 0 0 0 0 0 0 0 0 0 0 0 0 0 0 0 0 0 0 0 0 0 0 0 0 0 0 0 0 0 0 0 0 0 0 0 0 0 0 0 0 0 0 0 0 0 0 0
0 0 0 0 0 0 0 0 0 0 0 0 0 0 0 0 0 0 0 0 0 0 0 0 0 0 0 0 0 0 0 0 0 0 0 0 0 0 0 0 0 0 0 0 0 0 0 0 0
0 0 0 0 0 0 0 0 0 0 0 0 0 0 0 0 0 0 0 0 0 0 0 0 0 0 0 0 0 0 0 0 0 0 0 0 0 0 0 0 0 0 0 0 0 0 0 0 0
0 0 0 0 0 0 0 0 0 0 0 0 0 -0 0 0 0 0 0 0 0 0 0 0 0 0 0 0 0 0 0 0 0 0 0 0 0 0 0 0 0 0 0 0 0 0 0 0 0
0 0 0 0 0 0 0 0 0 0 0 0 0 0 0 0 0 0 0 0 0 0 0 0 0 0 0 0 0 0 0 0 0 0 0 0 0 0 0 0 0 0 0 0 0 0 0 0 0
0 0 0 0 0 0 0 0 0 0 0 0 0 0 0 0 0 0 0 0 0 0 0 0 0 0 0 0 0 0 0 0 0 0 0 0 0 0 0 0 0 0 0 0 0 0 0 0 0
0 0 0 0 0 0 0 0 0 0 0 0 0 0 0 0 0 0 0 0 0 0 0 0 0 0 0 0 0 0 0 0 0 0 0 0 0 0 0 0 0 0 0 0 0 0 0 0 0
0 0 0 0 0 0 0 0 0 0 0 0 0 0 0 0 0 0 0 0 0 0 0 0 0 0 0 0 0 0 0 0 0 0 0 0 0 0 0 0 0 0 0 0 0 0 0 0 0
0 0 0 0 0 0 0 0 0 0 0 0 0 0 0 0 0 0 0 0 0 0 0 0 0 0 0 0 0 0 0 0 0 0 0 0 0 0 0 0 0 0 0 0 0 0 0 0 0
0 0 0 0 0 0 0 0 0 0 0 0 0 0 0 0 0 0 0 0 0 0 0 0 0 0 0 0 0 0 0 0 0 0 0 0 0 0 0 0 0 0 0 0 0 0 0 0 0
0 0 0 0 0 0 0 0 0 0 0 0 0 0 0 0 0 0 0 0 0 0 0 0 0 0 0 0 0 0 0 0 0 0 0 0 0 0 0 0 0 0 0 0 0 0 0 0 0
0 0 0 0 0 0 0 0 0 0 0 0 0 0 0 0 0 0 0 0 0 0 0 0 0 0 0 0 0 0 0 0 0 0 0 0 0 0 0 0 0 0 0 0 0 0 0 0 0
0 0 0 0 0 0 0 0 0 0 -0 0 0 0 0 0 0 0 0 0 0 0 0 0 0 0 0 0 0 0 0 0 0 0 0 0 0 0 0 0 0 0 0 0 0 0 0 0 0
0 0 0 0 0 0 0 0 0 0 0 0 0 0 0 0 0 0 0 0 0 0 0 0 0 0 0 0 0 0 0 0 0 0 0 0 0 0 0 0 0 0 0 0 0 0 0 0 0
0 0 0 0 0 0 0 0 0 -0 0 0 0 0 0 0 0 0 0 0 0 0 0 0 0 0 0 0 0 0 0 0 0 0 0 0 0 0 0 0 0 0 0 0 0 0 0 0 0
0 0 0 0 0 0 0 0 -0 0 0 0 0 0 0 0 0 0 0 0 0 0 0 0 0 0 0 0 0 0 0 0 0 0 0 0 0 0 0 0 0 0 0 0 0 0 0 0 0
0 0 0 0 0 0 0 0 0 0 0 0 0 0 0 0 0 0 0 0 0 0 0 0 0 0 0 0 0 0 0 0 0 0 0 0 0 0 0 0 0 0 0 0 0 0 0 0 0
0 0 0 0 0 0 0 0 0 0 0 0 0 0 0 0 0 0 0 0 0 0 0 0 0 0 0 0 0 0 0 0 0 0 0 0 0 0 0 0 0 0 0 0 0 0 0 0 0
0 0 0 0 0 0 0 0 0 0 0 0 0 0 0 0 0 0 0 0 0 0 0 0 0 0 0 0 0 0 0 0 0 0 0 0 0 0 0 0 0 0 0 0 0 0 0 0 0
0 0 0 0 0 0 0 0 0 0 0 0 0 0 0 0 0 0 0 0 0 0 -0 -0 -0 -0 -0 0 0 0 0 0 0 0 0 0 0 0 0 0 0 0 0 0 0 0 0 0 0
0 0 0 0 0 0 0 0 0 0 0 0 0 0 0 0 -0 -0 -0 -0 -0 -0 -0 -0 -0 -0 -0 -0 0 0 0 0 0 0 0 0 0 0 0 0 0 0 0 0 0 0 0 0 0
0 0 0 0 0 0 0 0 0 0 0 0 0 0 0 0 0 0 0 0 -0 -0 -0 -0 -0 0 0 0 -0 -0 0 0 0 0 0 0 0 0 0 0 0 0 0 0 0 0 0 0 0
0 0 0 0 0 0 0 0 0 0 0 -0 -0 0 0 0 0 0 -0 -0 -0 0 0 0 0 0 0 0 0 0 -0 -0 -0 -0 0 0 0 0 0 0 0 0 0 0 0 0 0 0 0
Wind_Speed_500mb
15 11 14 14 3 5 6 9 3 16 10 9 8 7 9 14 7 0 6 4 9 22 27 40 40 38 37 34 31 29 26 23 19 18 15 16 14 12 9 7 8 9 5 3 4 5 4 2 2
9 6 10 11 5 4 7 5 17 10 8 7 6 8 11 3 8 2 1 2 16 16 22 37 40 38 38 37 34 31 28 24 22 22 19 19 18 19 18 14 14 14 16 9 7 7 6 4 1
3 5 9 4 6 7 5 9 10 5 5 4 6 5 3 6 6 4 10 5 16 21 22 32 39 41 40 38 35 33 31 29 26 24 22 22 25 26 25 22 21 20 17 9 12 12 11 11 10
5 7 10 3 11 8 9 13 19 16 8 4 6 15 6 9 6 9 10 8 14 22 31 31 38 42 41 41 39 36 34 33 31 28 26 25 24 22 20 20 20 21 18 13 15 14 14 12 11
9 10 5 6 14 3 5 16 5 8 10 5 4 8 16 9 10 9 12 12 13 22 33 33 34 43 44 43 42 41 38 37 34 30 30 27 21 18 20 20 20 20 17 16 15 13 13 11 9
9 5 6 9 13 10 9 12 8 11 5 6 5 17 9 11 10 7 11 9 13 22 30 35 34 40 46 45 44 44 42 41 39 37 37 37 23 21 20 21 20 19 16 16 14 12 8 4 4
5 3 10 12 14 11 6 7 6 14 19 7 5 6 14 5 13 12 19 18 15 22 28 35 36 40 47 48 48 47 45 46 46 44 43 33 29 25 20 21 21 20 19 17 13 11 9 6 5
9 4 9 7 7 12 11 4 6 10 17 18 6 8 4 6 15 19 25 22 23 24 33 34 37 40 47 50 50 50 49 49 50 50 47 39 36 30 26 25 23 22 21 18 14 12 9 8 7
4 5 8 13 7 7 17 6 3 11 19 29 21 30 35 35 37 37 33 28 30 31 36 37 41 42 46 50 51 52 52 51 54 54 52 48 45 36 34 30 29 28 25 23 21 18 16 14 12
7 6 9 14 18 14 36 28 29 19 33 40 37 40 43 38 35 39 38 36 36 39 41 45 44 48 47 50 54 55 56 56 59 60 58 57 50 43 39 36 35 32 29 28 26 22 20 18 16
10 8 14 28 43 24 20 31 31 32 18 42 45 56 54 34 35 43 49 43 40 40 42 47 49 49 53 52 53 56 60 64 63 61 59 57 50 49 45 43 41 40 36 34 31 27 26 22 20
15 30 33 37 34 19 11 28 32 46 50 51 56 58 58 53 50 48 49 53 42 43 51 52 48 55 56 57 58 59 60 62 68 67 66 62 55 54 53 49 46 45 41 40 37 35 31 27 23
15 25 37 38 31 33 35 35 26 67 61 59 60 51 48 43 42 45 44 45 49 48 45 57 58 52 58 60 62 65 66 62 60 64 66 64 62 59 57 53 50 50 47 46 43 39 35 32 29
25 28 32 41 50 54 32 32 23 56 53 55 54 50 42 43 44 43 37 43 47 49 50 49 63 59 55 60 65 66 66 64 64 61 61 64 68 64 59 57 55 55 51 51 46 42 39 35 33
21 12 20 34 40 21 18 14 19 49 42 28 34 39 46 41 52 52 50 50 49 49 49 48 56 63 59 55 61 64 66 64 66 67 60 61 67 65 62 61 62 59 56 54 51 50 47 43 40
13 13 9 13 21 11 16 16 21 34 35 43 58 63 56 59 57 47 32 13 10 18 38 41 40 55 60 55 56 62 63 64 66 69 68 68 68 67 66 67 67 64 63 59 57 55 52 48 46
15 11 20 23 30 9 11 10 18 40 51 55 73 64 52 51 25 13 9 15 20 17 12 18 34 39 49 55 53 55 58 61 62 66 68 71 71 68 70 70 69 68 68 65 63 60 56 54 51
14 22 22 27 16 14 13 19 19 40 49 55 58 57 44 22 31 17 19 21 20 24 27 28 9 26 33 39 47 52 53 53 58 62 65 68 72 68 70 73 74 73 73 70 67 64 62 60 55
10 16 22 21 19 23 28 30 19 34 58 57 54 54 14 48 29 25 22 21 9 2 7 18 30 22 26 34 35 42 48 45 49 53 52 59 65 69 67 72 77 81 81 76 70 69 67 66 62
19 22 25 17 14 15 21 31 38 38 44 54 29 48 50 38 35 35 37 37 42 39 26 14 7 17 15 20 18 24 24 31 36 40 51 55 57 65 65 66 75 80 81 77 77 77 76 73 72
22 23 20 16 13 13 18 15 15 18 10 50 55 54 48 42 38 38 45 51 50 55 50 37 23 11 5 12 23 23 29 30 29 28 36 43 51 59 66 65 69 79 82 80 80 81 81 83 80
18 15 3 10 8 5 14 10 12 31 8 29 41 46 39 33 31 37 44 50 53 50 46 42 36 27 20 12 5 5 11 17 14 13 28 31 40 50 59 65 65 69 79 82 82 84 85 85 86
8 7 7 10 9 10 15 9 9 13 20 18 27 38 33 31 33 39 41 45 48 50 50 49 44 39 31 22 15 9 3 8 14 19 19 26 33 36 38 48 57 61 72 79 81 87 90 92 92
7 7 17 15 9 4 7 8 8 8 16 12 25 33 30 29 31 33 35 39 43 44 45 45 45 45 41 38 30 20 11 8 2 11 16 19 24 26 28 33 46 54 58 68 76 83 89 91 94
3 7 8 3 2 10 14 8 8 6 19 25 30 37 30 25 27 30 33 34 33 34 36 38 40 41 40 35 32 33 30 22 17 12 12 16 17 23 29 31 29 38 49 58 68 74 83 89 93
9 2 6 9 5 8 13 10 9 14 41 47 44 37 29 26 26 28 29 30 32 33 31 27 26 29 34 33 33 32 29 27 27 26 22 18 20 26 29 30 37 35 35 41 53 69 74 82 90
7 4 5 4 6 4 10 10 15 27 23 31 36 34 27 20 18 17 16 18 19 23 26 28 28 26 24 23 26 29 33 35 34 30 30 30 27 23 22 32 39 41 42 40 43 54 67 75 83
4 7 3 3 7 9 11 9 13 13 20 19 21 29 20 15 13 9 8 8 12 15 17 23 25 29 31 31 29 25 24 28 31 34 39 39 37 35 34 33 30 32 38 43 43 48 53 65 75
4 3 8 2 6 7 16 12 14 12 12 21 22 19 13 9 3 5 8 14 21 21 20 23 29 35 39 38 34 32 32 30 29 30 34 40 44 48 47 42 38 37 34 35 42 47 50 56 63
13 18 14 13 12 8 21 29 11 14 19 27 16 11 6 3 5 7 8 6 7 16 24 30 32 34 38 41 42 44 42 43 43 41 38 37 38 43 50 52 53 50 44 41 40 43 46 54 63
Wind_Direction_500mb
306 330 348 310 260 205 281 79 5 27 45 40 346 354 301 278 281 331 156 219 192 216 196 193 197 200 203 202 203 204 205 206 203 210 212 223 223 220 213 165 201 207 244 278 313 338 347 46 85
311 338 328 279 251 271 71 88 75 52 18 322 270 266 249 354 79 348 296 176 189 226 205 198 198 203 205 205 205 205 210 212 207 208 208 223 225 224 223 202 207 233 248 260 279 292 279 280 230
7 26 284 290 283 11 13 90 79 65 124 254 300 210 290 6 80 186 263 265 201 208 210 207 206 205 206 208 208 209 210 215 219 225 232 241 242 243 236 223 216 239 260 256 267 269 272 275 268
68 252 243 267 307 17 10 354 31 326 109 146 329 294 182 246 251 258 285 284 210 207 213 213 211 213 212 211 212 215 216 218 223 230 240 228 244 241 230 226 231 242 257 259 262 270 272 265 260
1 271 275 227 258 95 356 2 34 309 304 168 157 300 324 224 318 278 286 276 224 215 210 218 219 216 217 217 216 217 222 225 225 223 220 231 240 234 220 224 233 243 247 252 258 261 263 259 251
268 250 277 264 0 3 63 56 0 271 298 102 259 262 265 239 269 340 339 305 236 231 222 224 225 221 221 219 220 223 224 223 224 224 229 242 250 244 227 230 235 238 240 246 252 258 254 224 177
255 298 262 308 303 295 120 85 284 353 319 316 154 294 286 211 260 281 318 301 260 234 234 235 230 226 224 225 224 225 223 224 226 226 234 239 254 258 241 236 237 239 241 242 237 223 207 198 194
309 315 281 276 286 322 106 93 288 313 311 318 245 253 44 288 275 281 300 283 265 239 250 237 237 230 227 227 228 227 225 225 226 227 233 234 244 252 240 234 234 235 237 239 236 225 218 215 218
295 293 274 284 307 270 130 167 259 267 269 280 263 266 277 283 294 289 286 276 257 251 246 249 238 234 230 231 230 228 226 223 224 229 232 236 241 247 240 234 232 230 230 228 224 218 215 219 225
234 238 261 321 338 327 325 335 327 318 291 285 289 286 278 261 286 288 283 279 267 256 248 249 244 240 236 232 233 231 229 225 225 229 232 235 238 242 238 234 233 230 228 226 223 218 219 221 225
210 227 284 308 318 340 332 304 296 288 277 273 291 305 305 289 294 288 286 281 266 273 264 253 246 241 237 236 233 233 230 231 230 230 233 238 234 237 236 235 232 229 227 226 223 219 223 227 229
253 253 274 290 291 305 283 292 302 285 268 272 282 288 292 291 285 275 280 285 279 249 261 266 255 243 238 235 233 236 238 234 236 233 234 238 238 235 236 235 233 232 230 227 223 222 225 224 227
259 257 263 288 294 285 285 274 284 282 277 276 280 290 285 290 285 282 286 268 270 270 252 256 262 253 244 238 237 235 242 245 240 239 237 236 239 238 237 236 235 234 231 230 228 224 225 225 227
296 328 309 286 277 273 267 269 288 280 282 280 279 279 287 285 289 288 278 279 267 272 276 252 252 257 250 243 241 242 243 245 249 245 243 238 240 241 240 235 238 236 234 233 233 229 229 230 232
330 323 286 273 267 246 209 297 234 276 301 301 285 289 288 287 298 299 294 288 289 285 281 275 248 254 251 246 245 242 245 243 244 252 248 243 241 242 240 236 237 239 238 235 232 230 229 231 233
276 252 281 265 268 152 129 271 284 300 332 320 304 291 292 298 307 308 300 279 258 281 273 277 270 249 254 249 244 245 241 244 243 246 248 246 245 245 242 238 237 239 240 239 235 233 232 233 233
234 261 271 284 277 130 162 245 274 287 283 284 281 284 293 301 341 62 281 274 267 256 241 283 277 268 254 254 249 247 246 242 243 244 247 249 249 245 245 243 240 240 241 240 238 236 236 238 236
280 297 311 310 315 307 261 248 252 275 294 281 281 293 299 60 58 28 343 316 286 250 233 221 240 262 266 259 253 246 248 245 243 244 246 250 253 250 246 243 242 240 240 239 238 236 234 235 237
314 309 298 298 307 299 285 289 308 293 276 286 292 292 325 72 56 45 41 34 28 318 232 226 218 218 242 250 249 240 235 241 241 241 244 246 254 256 250 246 243 242 241 241 240 238 233 232 230
297 286 284 279 284 325 320 300 290 276 270 269 289 72 74 66 55 53 57 60 57 60 64 70 132 198 232 229 235 237 241 247 255 256 250 247 251 257 257 250 246 246 246 241 237 236 232 230 232
272 271 291 313 343 303 300 282 268 280 346 79 70 74 67 60 53 50 53 57 61 59 57 62 70 109 196 206 225 233 226 227 227 240 252 255 248 252 259 257 251 250 250 247 246 242 238 235 233
277 261 320 301 335 236 45 282 327 281 77 81 77 73 69 66 67 60 54 55 54 55 58 58 63 70 84 109 150 208 198 224 226 255 276 276 263 259 261 262 259 254 255 252 248 247 244 240 238
262 10 280 254 244 307 233 249 245 235 107 103 91 88 78 72 64 60 58 55 55 54 51 52 53 55 56 64 69 85 149 234 219 218 244 265 277 279 270 265 263 258 255 256 253 250 247 244 242
11 296 269 257 218 284 238 212 304 92 156 123 110 102 96 80 71 63 55 50 49 45 43 42 44 48 48 48 47 44 33 16 322 219 257 275 282 289 289 273 261 259 257 258 258 256 253 250 249
85 329 308 276 119 212 51 3 258 348 171 153 132 111 95 84 65 52 42 34 29 30 27 25 21 23 28 28 38 42 44 36 32 13 320 304 290 299 305 297 279 270 264 261 262 260 258 255 252
175 338 191 265 320 308 2 236 246 84 85 102 108 105 87 67 51 40 29 26 21 21 22 24 22 16 12 9 16 16 16 24 30 29 20 353 315 291 278 279 288 289 278 267 262 262 262 261 257
141 191 75 39 234 212 232 276 289 116 105 112 109 98 89 73 56 43 28 27 31 20 12 15 20 23 22 13 9 6 4 4 7 10 8 3 356 339 312 280 281 282 283 278 271 265 262 262 263
189 111 42 174 260 240 261 281 265 94 138 124 109 106 110 117 110 103 78 27 34 35 23 13 14 21 23 23 23 23 14 3 1 2 357 350 344 340 338 337 321 303 292 287 277 271 267 265 263
156 195 210 253 203 252 274 257 96 86 109 129 128 131 142 144 111 72 55 34 360 6 15 12 7 5 7 10 8 8 8 7 2 6 352 344 341 339 339 336 330 325 314 296 287 282 275 267 266
275 266 266 247 254 243 257 258 26 109 119 130 142 170 192 177 318 13 27 49 18 6 3 358 359 358 356 353 351 351 354 353 356 358 350 339 332 330 330 331 331 331 322 311 303 288 283 277 272
Wind_Speed_850mb
15 11 14 14 3 5 6 9 3 16 10 9 8 7 9 14 7 0 6 4 9 22 27 40 40 38 37 34 31 29 26 23 19 18 15 16 14 12 9 7 8 9 5 3 4 5 4 2 2
9 6 10 11 5 4 7 5 17 10 8 7 6 8 11 3 8 2 1 2 16 16 22 37 40 38 38 37 34 31 28 24 22 22 19 19 18 19 18 14 14 14 16 9 7 7 6 4 1
3 5 9 4 6 7 5 9 10 5 5 4 6 5 3 6 6 4 10 5 16 21 22 32 39 41 40 38 35 33 31 29 26 24 22 22 25 26 25 22 21 20 17 9 12 12 11 11 10
5 7 10 3 11 8 9 13 19 16 8 4 6 15 6 9 6 9 10 8 14 22 31 31 38 42 41 41 39 36 34 33 31 28 26 25 24 22 20 20 20 21 18 13 15 14 14 12 11
9 10 5 6 14 3 5 16 5 8 10 5 4 8 16 9 10 9 12 12 13 22 33 33 34 43 44 43 42 41 38 37 34 30 30 27 21 18 20 20 20 20 17 16 15 13 13 11 9
9 5 6 9 13 10 9 12 8 11 5 6 5 17 9 11 10 7 11 9 13 22 30 35 34 40 46 45 44 44 42 41 39 37 37 37 23 21 20 21 20 19 16 16 14 12 8 4 4
5 3 10 12 14 11 6 7 6 14 19 7 5 6 14 5 13 12 19 18 15 22 28 35 36 40 47 48 48 47 45 46 46 44 43 33 29 25 20 21 21 20 19 17 13 11 9 6 5
9 4 9 7 7 12 11 4 6 10 17 18 6 8 4 6 15 19 25 22 23 24 33 34 37 40 47 50 50 50 49 49 50 50 47 39 36 30 26 25 23 22 21 18 14 12 9 8 7
4 5 8 13 7 7 17 6 3 11 19 29 21 30 35 35 37 37 33 28 30 31 36 37 41 42 46 50 51 52 52 51 54 54 52 48 45 36 34 30 29 28 25 23 21 18 16 14 12
7 6 9 14 18 14 36 28 29 19 33 40 37 40 43 38 35 39 38 36 36 39 41 45 44 48 47 50 54 55 56 56 59 60 58 57 50 43 39 36 35 32 29 28 26 22 20 18 16
10 8 14 28 43 24 20 31 31 32 18 42 45 56 54 34 35 43 49 43 40 40 42 47 49 49 53 52 53 56 60 64 63 61 59 57 50 49 45 43 41 40 36 34 31 27 26 22 20
15 30 33 37 34 19 11 28 32 46 50 51 56 58 58 53 50 48 49 53 42 43 51 52 48 55 56 57 58 59 60 62 68 67 66 62 55 54 53 49 46 45 41 40 37 35 31 27 23
15 25 37 38 31 33 35 35 26 67 61 59 60 51 48 43 42 45 44 45 49 48 45 57 58 52 58 60 62 65 66 62 60 64 66 64 62 59 57 53 50 50 47 46 43 39 35 32 29
25 28 32 41 50 54 32 32 23 56 53 55 54 50 42 43 44 43 37 43 47 49 50 49 63 59 55 60 65 66 66 64 64 61 61 64 68 64 59 57 55 55 51 51 46 42 39 35 33
21 12 20 34 40 21 18 14 19 49 42 28 34 39 46 41 52 52 50 50 49 49 49 48 56 63 59 55 61 64 66 64 66 67 60 61 67 65 62 61 62 59 56 54 51 50 47 43 40
13 13 9 13 21 11 16 16 21 34 35 43 58 63 56 59 57 47 32 13 10 18 38 41 40 55 60 55 56 62 63 64 66 69 68 68 68 67 66 67 67 64 63 59 57 55 52 48 46
15 11 20 23 30 9 11 10 18 40 51 55 73 64 52 51 25 13 9 15 20 17 12 18 34 39 49 55 53 55 58 61 62 66 68 71 71 68 70 70 69 68 68 65 63 60 56 54 51
14 22 22 27 16 14 13 19 19 40 49 55 58 57 44 22 31 17 19 21 20 24 27 28 9 26 33 39 47 52 53 53 58 62 65 68 72 68 70 73 74 73 73 70 67 64 62 60 55
10 16 22 21 19 23 28 30 19 34 58 57 54 54 14 48 29 25 22 21 9 2 7 18 30 22 26 34 35 42 48 45 49 53 52 59 65 69 67 72 77 81 81 76 70 69 67 66 62
19 22 25 17 14 15 21 31 38 38 44 54 29 48 50 38 35 35 37 37 42 39 26 14 7 17 15 20 18 24 24 31 36 40 51 55 57 65 65 66 75 80 81 77 77 77 76 73 72
22 23 20 16 13 13 18 15 15 18 10 50 55 54 48 42 38 38 45 51 50 55 50 37 23 11 5 12 23 23 29 30 29 28 36 43 51 59 66 65 69 79 82 80 80 81 81 83 80
18 15 3 10 8 5 14 10 12 31 8 29 41 46 39 33 31 37 44 50 53 50 46 42 36 27 20 12 5 5 11 17 14 13 28 31 40 50 59 65 65 69 79 82 82 84 85 85 86
8 7 7 10 9 10 15 9 9 13 20 18 27 38 33 31 33 39 41 45 48 50 50 49 44 39 31 22 15 9 3 8 14 19 19 26 33 36 38 48 57 61 72 79 81 87 90 92 92
7 7 17 15 9 4 7 8 8 8 16 12 25 33 30 29 31 33 35 39 43 44 45 45 45 45 41 38 30 20 11 8 2 11 16 19 24 26 28 33 46 54 58 68 76 83 89 91 94
3 7 8 3 2 10 14 8 8 6 19 25 30 37 30 25 27 30 33 34 33 34 36 38 40 41 40 35 32 33 30 22 17 12 12 16 17 23 29 31 29 38 49 58 68 74 83 89 93
9 2 6 9 5 8 13 10 9 14 41 47 44 37 29 26 26 28 29 30 32 33 31 27 26 29 34 33 33 32 29 27 27 26 22 18 20 26 29 30 37 35 35 41 53 69 74 82 90
7 4 5 4 6 4 10 10 15 27 23 31 36 34 27 20 18 17 16 18 19 23 26 28 28 26 24 23 26 29 33 35 34 30 30 30 27 23 22 32 39 41 42 40 43 54 67 75 83
4 7 3 3 7 9 11 9 13 13 20 19 21 29 20 15 13 9 8 8 12 15 17 23 25 29 31 31 29 25 24 28 31 34 39 39 37 35 34 33 30 32 38 43 43 48 53 65 75
4 3 8 2 6 7 16 12 14 12 12 21 22 19 13 9 3 5 8 14 21 21 20 23 29 35 39 38 34 32 32 30 29 30 34 40 44 48 47 42 38 37 34 35 42 47 50 56 63
13 18 14 13 12 8 21 29 11 14 19 27 16 11 6 3 5 7 8 6 7 16 24 30 32 34 38 41 42 44 42 43 43 41 38 37 38 43 50 52 53 50 44 41 40 43 46 54 63
Wind_Direction_850mb
306 330 348 310 260 205 281 79 5 27 45 40 346 354 301 278 281 331 156 219 192 216 196 193 197 200 203 202 203 204 205 206 203 210 212 223 223 220 213 165 201 207 244 278 313 338 347 46 85
311 338 328 279 251 271 71 88 75 52 18 322 270 266 249 354 79 348 296 176 189 226 205 198 198 203 205 205 205 205 210 212 207 208 208 223 225 224 223 202 207 233 248 260 279 292 279 280 230
7 26 284 290 283 11 13 90 79 65 124 254 300 210 290 6 80 186 263 265 201 208 210 207 206 205 206 208 208 209 210 215 219 225 232 241 242 243 236 223 216 239 260 256 267 269 272 275 268
68 252 243 267 307 17 10 354 31 326 109 146 329 294 182 246 251 258 285 284 210 207 213 213 211 213 212 211 212 215 216 218 223 230 240 228 244 241 230 226 231 242 257 259 262 270 272 265 260
1 271 275 227 258 95 356 2 34 309 304 168 157 300 324 224 318 278 286 276 224 215 210 218 219 216 217 217 216 217 222 225 225 223 220 231 240 234 220 224 233 243 247 252 258 261 263 259 251
268 250 277 264 0 3 63 56 0 271 298 102 259 262 265 239 269 340 339 305 236 231 222 224 225 221 221 219 220 223 224 223 224 224 229 242 250 244 227 230 235 238 240 246 252 258 254 224 177
255 298 262 308 303 295 120 85 284 353 319 316 154 294 286 211 260 281 318 301 260 234 234 235 230 226 224 225 224 225 223 224 226 226 234 239 254 258 241 236 237 239 241 242 237 223 207 198 194
309 315 281 276 286 322 106 93 288 313 311 318 245 253 44 288 275 281 300 283 265 239 250 237 237 230 227 227 228 227 225 225 226 227 233 234 244 252 240 234 234 235 237 239 236 225 218 215 218
295 293 274 284 307 270 130 167 259 267 269 280 263 266 277 283 294 289 286 276 257 251 246 249 238 234 230 231 230 228 226 223 224 229 232 236 241 247 240 234 232 230 230 228 224 218 215 219 225
234 238 261 321 338 327 325 335 327 318 291 285 289 286 278 261 286 288 283 279 267 256 248 249 244 240 236 232 233 231 229 225 225 229 232 235 238 242 238 234 233 230 228 226 223 218 219 221 225
210 227 284 308 318 340 332 304 296 288 277 273 291 305 305 289 294 288 286 281 266 273 264 253 246 241 237 236 233 233 230 231 230 230 233 238 234 237 236 235 232 229 227 226 223 219 223 227 229
253 253 274 290 291 305 283 292 302 285 268 272 282 288 292 291 285 275 280 285 279 249 261 266 255 243 238 235 233 236 238 234 236 233 234 238 238 235 236 235 233 232 230 227 223 222 225 224 227
259 257 263 288 294 285 285 274 284 282 277 276 280 290 285 290 285 282 286 268 270 270 252 256 262 253 244 238 237 235 242 245 240 239 237 236 239 238 237 236 235 234 231 230 228 224 225 225 227
296 328 309 286 277 273 267 269 288 280 282 280 279 279 287 285 289 288 278 279 267 272 276 252 252 257 250 243 241 242 243 245 249 245 243 238 240 241 240 235 238 236 234 233 233 229 229 230 232
330 323 286 273 267 246 209 297 234 276 301 301 285 289 288 287 298 299 294 288 289 285 281 275 248 254 251 246 245 242 245 243 244 252 248 243 241 242 240 236 237 239 238 235 232 230 229 231 233
276 252 281 265 268 152 129 271 284 300 332 320 304 291 292 298 307 308 300 279 258 281 273 277 270 249 254 249 244 245 241 244 243 246 248 246 245 245 242 238 237 239 240 239 235 233 232 233 233
234 261 271 284 277 130 162 245 274 287 283 284 281 284 293 301 341 62 281 274 267 256 241 283 277 268 254 254 249 247 246 242 243 244 247 249 249 245 245 243 240 240 241 240 238 236 236 238 236
280 297 311 310 315 307 261 248 252 275 294 281 281 293 299 60 58 28 343 316 286 250 233 221 240 262 266 259 253 246 248 245 243 244 246 250 253 250 246 243 242 240 240 239 238 236 234 235 237
314 309 298 298 307 299 285 289 308 293 276 286 292 292 325 72 56 45 41 34 28 318 232 226 218 218 242 250 249 240 235 241 241 241 244 246 254 256 250 246 243 242 241 241 240 238 233 232 230
297 286 284 279 284 325 320 300 290 276 270 269 289 72 74 66 55 53 57 60 57 60 64 70 132 198 232 229 235 237 241 247 255 256 250 247 251 257 257 250 246 246 246 241 237 236 232 230 232
272 271 291 313 343 303 300 282 268 280 346 79 70 74 67 60 53 50 53 57 61 59 57 62 70 109 196 206 225 233 226 227 227 240 252 255 248 252 259 257 251 250 250 247 246 242 238 235 233
277 261 320 301 335 236 45 282 327 281 77 81 77 73 69 66 67 60 54 55 54 55 58 58 63 70 84 109 150 208 198 224 226 255 276 276 263 259 261 262 259 254 255 252 248 247 244 240 238
262 10 280 254 244 307 233 249 245 235 107 103 91 88 78 72 64 60 58 55 55 54 51 52 53 55 56 64 69 85 149 234 219 218 244 265 277 279 270 265 263 258 255 256 253 250 247 244 242
11 296 269 257 218 284 238 212 304 92 156 123 110 102 96 80 71 63 55 50 49 45 43 42 44 48 48 48 47 44 33 16 322 219 257 275 282 289 289 273 261 259 257 258 258 256 253 250 249
85 329 308 276 119 212 51 3 258 348 171 153 132 111 95 84 65 52 42 34 29 30 27 25 21 23 28 28 38 42 44 36 32 13 320 304 290 299 305 297 279 270 264 261 262 260 258 255 252
175 338 191 265 320 308 2 236 246 84 85 102 108 105 87 67 51 40 29 26 21 21 22 24 22 16 12 9 16 16 16 24 30 29 20 353 315 291 278 279 288 289 278 267 262 262 262 261 257
141 191 75 39 234 212 232 276 289 116 105 112 109 98 89 73 56 43 28 27 31 20 12 15 20 23 22 13 9 6 4 4 7 10 8 3 356 339 312 280 281 282 283 278 271 265 262 262 263
189 111 42 174 260 240 261 281 265 94 138 124 109 106 110 117 110 103 78 27 34 35 23 13 14 21 23 23 23 23 14 3 1 2 357 350 344 340 338 337 321 303 292 287 277 271 267 265 263
156 195 210 253 203 252 274 257 96 86 109 129 128 131 142 144 111 72 55 34 360 6 15 12 7 5 7 10 8 8 8 7 2 6 352 344 341 339 339 336 330 325 314 296 287 282 275 267 266
275 266 266 247 254 243 257 258 26 109 119 130 142 170 192 177 318 13 27 49 18 6 3 358 359 358 356 353 351 351 354 353 356 358 350 339 332 330 330 331 331 331 322 311 303 288 283 277 272